Location: Unspecified
(44.0704°N, 88.6889°W)
Time: 22:13:33
(UTC+02:00)

Okean 3 - Pass Details

Date: 24 March 2019
Orbit: 577 x 600 km, 82.5° (Epoch: 18 October)

Event Time Altitude Azimuth Distance (km) Brightness Sun altitude
Rises 11:08:23 0° 173° (S) 2,829 6.8 -18.8°
Reaches altitude 10° 11:10:38 10° 168° (SSE) 1,934 6.0 -18.4°
Maximum altitude 11:14:45 49° 94° (E) 782 4.4 -17.7°
Drops below altitude 10° 11:18:55 10° 19° (NNE) 1,953 6.6 -17.0°
Sets 11:21:11 0° 14° (NNE) 2,860 7.5 -16.7°
